Time,TemperatureF,DewpointF,PressureIn,WindDirection,WindDirectionDegrees,WindSpeedMPH,WindSpeedGustMPH,Humidity,HourlyPrecipIn,Conditions,Clouds,dailyrainin,SoftwareType,DateUTC
2013-08-25 00:00:00,60.4,57.1,30.29,SW,232,0.0,0.0,89,0.00,,,0.00,Wunderground v.1.15,2013-08-25 04:00:00,
2013-08-25 00:05:00,60.2,56.9,30.29,SW,232,0.0,0.0,89,0.00,,,0.00,Wunderground v.1.15,2013-08-25 04:05:00,
2013-08-25 00:10:00,60.1,57.2,30.29,SW,232,0.0,0.0,90,0.00,,,0.00,Wunderground v.1.15,2013-08-25 04:10:00,
2013-08-25 00:15:00,60.0,57.1,30.29,SW,232,0.0,0.0,90,0.00,,,0.00,Wunderground v.1.15,2013-08-25 04:15:00,
2013-08-25 00:20:00,59.8,57.2,30.29,SW,232,0.0,1.0,91,0.00,,,0.00,Wunderground v.1.15,2013-08-25 04:20:00,
2013-08-25 00:30:00,59.6,57.0,30.29,SW,232,0.0,0.0,91,0.00,,,0.00,Wunderground v.1.15,2013-08-25 04:30:00,
2013-08-25 00:40:00,59.3,57.0,30.29,SW,232,0.0,0.0,92,0.00,,,0.00,Wunderground v.1.15,2013-08-25 04:40:00,
2013-08-25 00:50:00,59.1,57.1,30.28,SW,232,0.0,0.0,93,0.00,,,0.00,Wunderground v.1.15,2013-08-25 04:50:00,
2013-08-25 00:55:00,59.1,57.1,30.28,SW,232,0.0,0.0,93,0.00,,,0.00,Wunderground v.1.15,2013-08-25 04:55:00,
2013-08-25 01:00:00,59.1,57.1,30.28,SW,232,0.0,0.0,93,0.00,,,0.00,Wunderground v.1.15,2013-08-25 05:00:00,
2013-08-25 01:05:00,59.1,57.4,30.28,SW,232,0.0,0.0,94,0.00,,,0.00,Wunderground v.1.15,2013-08-25 05:05:00,
2013-08-25 01:15:00,59.1,57.4,30.28,SW,232,0.0,0.0,94,0.00,,,0.00,Wunderground v.1.15,2013-08-25 05:15:00,
2013-08-25 01:25:00,59.0,57.3,30.28,SW,232,0.0,1.0,94,0.00,,,0.00,Wunderground v.1.15,2013-08-25 05:25:00,
2013-08-25 01:30:00,58.9,57.2,30.28,SW,232,0.0,0.0,94,0.00,,,0.00,Wunderground v.1.15,2013-08-25 05:30:00,
2013-08-25 01:40:00,58.6,56.9,30.28,SW,232,0.0,0.0,94,0.00,,,0.00,Wunderground v.1.15,2013-08-25 05:40:00,
2013-08-25 01:50:00,58.4,56.7,30.28,SW,232,0.0,0.0,94,0.00,,,0.00,Wunderground v.1.15,2013-08-25 05:50:00,
2013-08-25 02:00:00,58.3,56.9,30.28,SW,232,0.0,0.0,95,0.00,,,0.00,Wunderground v.1.15,2013-08-25 06:00:00,
2013-08-25 02:05:00,58.2,56.5,30.28,SW,233,0.0,0.0,94,0.00,,,0.00,Wunderground v.1.15,2013-08-25 06:05:00,
2013-08-25 02:15:00,57.9,56.2,30.28,SW,232,0.0,0.0,94,0.00,,,0.00,Wunderground v.1.15,2013-08-25 06:15:00,
2013-08-25 02:20:00,57.8,56.4,30.27,SW,232,0.0,0.0,95,0.00,,,0.00,Wunderground v.1.15,2013-08-25 06:20:00,
2013-08-25 02:30:00,57.6,56.2,30.28,SW,232,0.0,0.0,95,0.00,,,0.00,Wunderground v.1.15,2013-08-25 06:30:00,
2013-08-25 02:35:00,57.5,56.1,30.27,SW,232,0.0,0.0,95,0.00,,,0.00,Wunderground v.1.15,2013-08-25 06:35:00,
2013-08-25 02:45:00,57.3,55.9,30.28,SW,232,0.0,0.0,95,0.00,,,0.00,Wunderground v.1.15,2013-08-25 06:45:00,
2013-08-25 02:55:00,57.1,55.7,30.28,SW,232,0.0,0.0,95,0.00,,,0.00,Wunderground v.1.15,2013-08-25 06:55:00,
2013-08-25 03:00:00,57.1,56.0,30.28,SW,232,0.0,0.0,96,0.00,,,0.00,Wunderground v.1.15,2013-08-25 07:00:00,
2013-08-25 03:05:00,57.2,56.1,30.28,SW,232,0.0,0.0,96,0.00,,,0.00,Wunderground v.1.15,2013-08-25 07:05:00,
2013-08-25 03:15:00,57.2,56.1,30.28,SW,232,0.0,0.0,96,0.00,,,0.00,Wunderground v.1.15,2013-08-25 07:15:00,
2013-08-25 03:25:00,57.1,56.0,30.28,SW,232,0.0,0.0,96,0.00,,,0.00,Wunderground v.1.15,2013-08-25 07:25:00,
2013-08-25 03:35:00,57.3,56.5,30.29,SW,232,0.0,0.0,97,0.00,,,0.00,Wunderground v.1.15,2013-08-25 07:35:00,
2013-08-25 03:40:00,57.4,56.6,30.29,SW,232,0.0,0.0,97,0.00,,,0.00,Wunderground v.1.15,2013-08-25 07:40:00,
2013-08-25 03:50:00,57.5,56.7,30.29,SW,232,0.0,0.0,97,0.00,,,0.00,Wunderground v.1.15,2013-08-25 07:50:00,
2013-08-25 04:00:00,57.3,56.5,30.29,SW,232,0.0,0.0,97,0.00,,,0.00,Wunderground v.1.15,2013-08-25 08:00:00,
2013-08-25 04:05:00,57.2,56.4,30.29,SW,232,0.0,0.0,97,0.00,,,0.00,Wunderground v.1.15,2013-08-25 08:05:00,
2013-08-25 04:15:00,57.0,56.2,30.29,SW,232,0.0,0.0,97,0.00,,,0.00,Wunderground v.1.15,2013-08-25 08:15:00,
2013-08-25 04:25:00,56.9,56.1,30.29,SW,232,0.0,0.0,97,0.00,,,0.00,Wunderground v.1.15,2013-08-25 08:25:00,
2013-08-25 04:35:00,56.6,55.8,30.30,SW,232,0.0,0.0,97,0.00,,,0.00,Wunderground v.1.15,2013-08-25 08:35:00,
2013-08-25 04:45:00,56.4,55.6,30.30,SW,232,0.0,0.0,97,0.00,,,0.00,Wunderground v.1.15,2013-08-25 08:45:00,
2013-08-25 04:55:00,56.2,55.4,30.30,SW,232,0.0,0.0,97,0.00,,,0.00,Wunderground v.1.15,2013-08-25 08:55:00,
2013-08-25 05:00:00,56.1,55.3,30.31,SW,232,0.0,0.0,97,0.00,,,0.00,Wunderground v.1.15,2013-08-25 09:00:00,
2013-08-25 05:05:00,56.0,55.2,30.31,SW,232,0.0,0.0,97,0.00,,,0.00,Wunderground v.1.15,2013-08-25 09:05:00,
2013-08-25 05:15:00,55.8,55.0,30.32,SW,232,0.0,0.0,97,0.00,,,0.00,Wunderground v.1.15,2013-08-25 09:15:00,
2013-08-25 05:25:00,55.7,54.9,30.32,SW,232,0.0,0.0,97,0.00,,,0.00,Wunderground v.1.15,2013-08-25 09:25:00,
2013-08-25 05:30:00,55.7,54.9,30.32,SW,232,0.0,0.0,97,0.00,,,0.00,Wunderground v.1.15,2013-08-25 09:30:00,
2013-08-25 05:40:00,55.5,54.7,30.32,SW,232,0.0,0.0,97,0.00,,,0.00,Wunderground v.1.15,2013-08-25 09:40:00,
2013-08-25 05:50:00,55.3,54.5,30.32,SW,232,0.0,0.0,97,0.00,,,0.00,Wunderground v.1.15,2013-08-25 09:50:00,
2013-08-25 05:55:00,55.3,54.5,30.32,SW,232,0.0,0.0,97,0.00,,,0.00,Wunderground v.1.15,2013-08-25 09:55:00,
2013-08-25 06:05:00,55.3,54.5,30.33,SW,232,0.0,0.0,97,0.00,,,0.00,Wunderground v.1.15,2013-08-25 10:05:00,
2013-08-25 06:15:00,55.3,54.5,30.33,SW,232,0.0,0.0,97,0.00,,,0.00,Wunderground v.1.15,2013-08-25 10:15:00,
2013-08-25 06:25:00,55.1,54.3,30.33,SW,232,0.0,0.0,97,0.00,,,0.00,Wunderground v.1.15,2013-08-25 10:25:00,
2013-08-25 06:35:00,54.9,54.1,30.34,SW,232,0.0,0.0,97,0.00,,,0.00,Wunderground v.1.15,2013-08-25 10:35:00,
2013-08-25 06:45:00,55.0,54.2,30.34,SW,232,0.0,0.0,97,0.00,,,0.00,Wunderground v.1.15,2013-08-25 10:45:00,
2013-08-25 06:55:00,55.3,54.7,30.34,SW,232,0.0,0.0,98,0.00,,,0.00,Wunderground v.1.15,2013-08-25 10:55:00,
2013-08-25 07:05:00,55.6,55.0,30.34,SW,232,0.0,0.0,98,0.00,,,0.00,Wunderground v.1.15,2013-08-25 11:05:00,
2013-08-25 07:15:00,55.7,55.1,30.35,SW,232,0.0,0.0,98,0.00,,,0.00,Wunderground v.1.15,2013-08-25 11:15:00,
2013-08-25 07:25:00,55.8,55.2,30.35,SW,232,0.0,0.0,98,0.00,,,0.00,Wunderground v.1.15,2013-08-25 11:25:00,
2013-08-25 07:35:00,56.0,55.4,30.35,SW,232,0.0,0.0,98,0.00,,,0.00,Wunderground v.1.15,2013-08-25 11:35:00,
2013-08-25 07:45:00,55.9,55.3,30.36,SW,232,0.0,0.0,98,0.00,,,0.00,Wunderground v.1.15,2013-08-25 11:45:00,
2013-08-25 07:55:00,56.0,55.4,30.35,SW,232,0.0,0.0,98,0.00,,,0.00,Wunderground v.1.15,2013-08-25 11:55:00,
2013-08-25 08:05:00,56.4,55.8,30.36,SW,232,0.0,0.0,98,0.00,,,0.00,Wunderground v.1.15,2013-08-25 12:05:00,
2013-08-25 08:15:00,56.9,56.3,30.35,SW,232,0.0,0.0,98,0.00,,,0.00,Wunderground v.1.15,2013-08-25 12:15:00,
2013-08-25 08:25:00,57.3,56.7,30.35,SW,232,0.0,0.0,98,0.00,,,0.00,Wunderground v.1.15,2013-08-25 12:25:00,
2013-08-25 08:30:00,57.4,56.8,30.36,SW,232,0.0,0.0,98,0.00,,,0.00,Wunderground v.1.15,2013-08-25 12:30:00,
2013-08-25 08:40:00,57.7,57.1,30.36,SW,232,0.0,0.0,98,0.00,,,0.00,Wunderground v.1.15,2013-08-25 12:40:00,
2013-08-25 08:50:00,58.3,57.7,30.36,SW,232,0.0,0.0,98,0.00,,,0.00,Wunderground v.1.15,2013-08-25 12:50:00,
2013-08-25 08:55:00,58.4,57.8,30.36,SW,232,0.0,0.0,98,0.00,,,0.00,Wunderground v.1.15,2013-08-25 12:55:00,
2013-08-25 09:05:00,58.5,57.9,30.35,SW,232,0.0,0.0,98,0.00,,,0.00,Wunderground v.1.15,2013-08-25 13:05:00,
2013-08-25 09:15:00,58.8,58.2,30.35,SW,232,0.0,0.0,98,0.00,,,0.00,Wunderground v.1.15,2013-08-25 13:15:00,
2013-08-25 09:25:00,59.4,59.1,30.35,SW,232,0.0,0.0,99,0.00,,,0.00,Wunderground v.1.15,2013-08-25 13:25:00,
2013-08-25 09:35:00,60.2,59.9,30.35,SW,232,0.0,0.0,99,0.00,,,0.00,Wunderground v.1.15,2013-08-25 13:35:00,
2013-08-25 09:45:00,61.0,60.7,30.35,SW,232,0.0,0.0,99,0.00,,,0.00,Wunderground v.1.15,2013-08-25 13:45:00,
2013-08-25 09:55:00,61.6,61.0,30.35,SW,232,0.0,1.0,98,0.00,,,0.00,Wunderground v.1.15,2013-08-25 13:55:00,
2013-08-25 10:05:00,62.5,61.9,30.35,East,99,0.0,0.0,98,0.00,,,0.00,Wunderground v.1.15,2013-08-25 14:05:00,
2013-08-25 10:15:00,63.5,62.0,30.35,WSW,243,0.0,1.0,95,0.00,,,0.00,Wunderground v.1.15,2013-08-25 14:15:00,
2013-08-25 10:20:00,63.9,61.2,30.34,SSW,212,0.0,1.0,91,0.00,,,0.00,Wunderground v.1.15,2013-08-25 14:20:00,
2013-08-25 10:30:00,65.1,61.1,30.34,SSW,212,0.0,0.0,87,0.00,,,0.00,Wunderground v.1.15,2013-08-25 14:30:00,
2013-08-25 10:40:00,67.0,62.3,30.34,SSE,149,0.0,2.0,85,0.00,,,0.00,Wunderground v.1.15,2013-08-25 14:40:00,
2013-08-25 10:50:00,68.6,63.6,30.34,SE,145,1.0,1.0,84,0.00,,,0.00,Wunderground v.1.15,2013-08-25 14:50:00,
2013-08-25 11:00:00,70.1,63.3,30.33,SW,224,1.0,1.0,79,0.00,,,0.00,Wunderground v.1.15,2013-08-25 15:00:00,
2013-08-25 11:05:00,70.6,64.1,30.33,SSW,200,1.0,1.0,80,0.00,,,0.00,Wunderground v.1.15,2013-08-25 15:05:00,
2013-08-25 11:15:00,71.2,64.7,30.33,SSW,208,1.0,1.0,80,0.00,,,0.00,Wunderground v.1.15,2013-08-25 15:15:00,
2013-08-25 11:25:00,72.1,64.1,30.33,SSW,208,1.0,2.0,76,0.00,,,0.00,Wunderground v.1.15,2013-08-25 15:25:00,
2013-08-25 11:30:00,72.8,65.9,30.33,South,185,1.0,2.0,79,0.00,,,0.00,Wunderground v.1.15,2013-08-25 15:30:00,
2013-08-25 11:40:00,74.2,64.2,30.33,SSE,150,1.0,1.0,71,0.00,,,0.00,Wunderground v.1.15,2013-08-25 15:40:00,
2013-08-25 11:50:00,76.0,66.7,30.33,SSE,156,1.0,1.0,73,0.00,,,0.00,Wunderground v.1.15,2013-08-25 15:50:00,
2013-08-25 11:55:00,76.5,66.0,30.33,SSW,200,1.0,1.0,70,0.00,,,0.00,Wunderground v.1.15,2013-08-25 15:55:00,
2013-08-25 12:05:00,77.3,65.9,30.33,ESE,114,1.0,1.0,68,0.00,,,0.00,Wunderground v.1.15,2013-08-25 16:05:00,
2013-08-25 12:15:00,78.3,66.9,30.32,SSE,159,1.0,2.0,68,0.00,,,0.00,Wunderground v.1.15,2013-08-25 16:15:00,
2013-08-25 12:25:00,79.6,66.8,30.32,SE,143,1.0,4.0,65,0.00,,,0.00,Wunderground v.1.15,2013-08-25 16:25:00,
2013-08-25 12:35:00,80.0,66.3,30.31,SSE,160,1.0,1.0,63,0.00,,,0.00,Wunderground v.1.15,2013-08-25 16:35:00,
2013-08-25 12:45:00,80.2,66.9,30.31,WSW,240,1.0,3.0,64,0.00,,,0.00,Wunderground v.1.15,2013-08-25 16:45:00,
2013-08-25 12:55:00,79.7,66.9,30.30,SW,233,1.0,2.0,65,0.00,,,0.00,Wunderground v.1.15,2013-08-25 16:55:00,
2013-08-25 13:05:00,80.2,67.8,30.30,SE,138,2.0,2.0,66,0.00,,,0.00,Wunderground v.1.15,2013-08-25 17:05:00,
2013-08-25 13:15:00,82.0,67.2,30.29,SSE,168,2.0,3.0,61,0.00,,,0.00,Wunderground v.1.15,2013-08-25 17:15:00,
2013-08-25 13:25:00,81.8,66.6,30.30,South,172,3.0,4.0,60,0.00,,,0.00,Wunderground v.1.15,2013-08-25 17:25:00,
2013-08-25 13:35:00,80.9,66.7,30.30,SE,129,1.0,2.0,62,0.00,,,0.00,Wunderground v.1.15,2013-08-25 17:35:00,
2013-08-25 13:45:00,81.4,67.1,30.29,South,169,1.0,1.0,62,0.00,,,0.00,Wunderground v.1.15,2013-08-25 17:45:00,
2013-08-25 13:55:00,82.6,68.3,30.28,SSW,198,1.0,1.0,62,0.00,,,0.00,Wunderground v.1.15,2013-08-25 17:55:00,
2013-08-25 14:05:00,83.0,67.2,30.28,WSW,252,2.0,3.0,59,0.00,,,0.00,Wunderground v.1.15,2013-08-25 18:05:00,
2013-08-25 14:15:00,83.5,68.6,30.28,SW,217,2.0,3.0,61,0.00,,,0.00,Wunderground v.1.15,2013-08-25 18:15:00,
2013-08-25 14:25:00,84.2,67.3,30.27,SSW,209,2.0,2.0,57,0.00,,,0.00,Wunderground v.1.15,2013-08-25 18:25:00,
2013-08-25 14:30:00,83.6,65.7,30.27,ENE,64,2.0,2.0,55,0.00,,,0.00,Wunderground v.1.15,2013-08-25 18:30:00,
2013-08-25 14:40:00,83.7,66.3,30.27,WSW,247,2.0,2.0,56,0.00,,,0.00,Wunderground v.1.15,2013-08-25 18:40:00,
2013-08-25 14:50:00,83.7,64.8,30.27,WNW,296,1.0,1.0,53,0.00,,,0.00,Wunderground v.1.15,2013-08-25 18:50:00,
2013-08-25 15:00:00,84.9,64.2,30.27,SE,144,2.0,2.0,50,0.00,,,0.00,Wunderground v.1.15,2013-08-25 19:00:00,
2013-08-25 15:05:00,84.4,65.9,30.27,SSE,162,1.0,2.0,54,0.00,,,0.00,Wunderground v.1.15,2013-08-25 19:05:00,
2013-08-25 15:15:00,85.2,66.1,30.26,SSE,151,1.0,2.0,53,0.00,,,0.00,Wunderground v.1.15,2013-08-25 19:15:00,
2013-08-25 15:25:00,85.3,64.6,30.26,NNW,347,1.0,2.0,50,0.00,,,0.00,Wunderground v.1.15,2013-08-25 19:25:00,
2013-08-25 15:35:00,87.2,66.3,30.26,NW,310,1.0,2.0,50,0.00,,,0.00,Wunderground v.1.15,2013-08-25 19:35:00,
2013-08-25 15:45:00,87.3,66.4,30.25,ESE,112,1.0,1.0,50,0.00,,,0.00,Wunderground v.1.15,2013-08-25 19:45:00,
2013-08-25 15:55:00,86.7,65.3,30.25,ESE,115,2.0,2.0,49,0.00,,,0.00,Wunderground v.1.15,2013-08-25 19:55:00,
2013-08-25 16:05:00,86.0,64.6,30.25,SE,138,1.0,2.0,49,0.00,,,0.00,Wunderground v.1.15,2013-08-25 20:05:00,
2013-08-25 16:15:00,86.4,65.0,30.24,SW,229,1.0,2.0,49,0.00,,,0.00,Wunderground v.1.15,2013-08-25 20:15:00,
2013-08-25 16:25:00,86.3,63.1,30.23,WSW,250,2.0,2.0,46,0.00,,,0.00,Wunderground v.1.15,2013-08-25 20:25:00,
2013-08-25 16:35:00,85.5,65.9,30.23,SW,226,2.0,3.0,52,0.00,,,0.00,Wunderground v.1.15,2013-08-25 20:35:00,
2013-08-25 16:45:00,85.1,65.5,30.23,South,186,1.0,2.0,52,0.00,,,0.00,Wunderground v.1.15,2013-08-25 20:45:00,
2013-08-25 16:55:00,84.9,65.9,30.23,SW,218,1.0,4.0,53,0.00,,,0.00,Wunderground v.1.15,2013-08-25 20:55:00,
2013-08-25 17:00:00,84.7,66.7,30.23,WSW,249,3.0,3.0,55,0.00,,,0.00,Wunderground v.1.15,2013-08-25 21:00:00,
2013-08-25 17:05:00,84.7,64.0,30.23,SW,222,3.0,3.0,50,0.00,,,0.00,Wunderground v.1.15,2013-08-25 21:05:00,
2013-08-25 17:15:00,84.5,65.5,30.23,SW,230,2.0,3.0,53,0.00,,,0.00,Wunderground v.1.15,2013-08-25 21:15:00,
2013-08-25 17:25:00,84.2,65.2,30.22,WSW,237,1.0,3.0,53,0.00,,,0.00,Wunderground v.1.15,2013-08-25 21:25:00,
2013-08-25 17:35:00,83.8,64.3,30.22,West,270,2.0,2.0,52,0.00,,,0.00,Wunderground v.1.15,2013-08-25 21:35:00,
2013-08-25 17:40:00,83.6,64.1,30.22,SSW,213,1.0,1.0,52,0.00,,,0.00,Wunderground v.1.15,2013-08-25 21:40:00,
2013-08-25 17:50:00,83.8,66.9,30.22,WSW,242,1.0,2.0,57,0.00,,,0.00,Wunderground v.1.15,2013-08-25 21:50:00,
2013-08-25 18:00:00,82.9,65.1,30.22,SW,233,2.0,2.0,55,0.00,,,0.00,Wunderground v.1.15,2013-08-25 22:00:00,
2013-08-25 18:05:00,82.7,66.4,30.22,West,271,1.0,2.0,58,0.00,,,0.00,Wunderground v.1.15,2013-08-25 22:05:00,
2013-08-25 18:15:00,81.8,67.5,30.22,NW,314,1.0,1.0,62,0.00,,,0.00,Wunderground v.1.15,2013-08-25 22:15:00,
2013-08-25 18:20:00,80.9,67.1,30.22,West,270,1.0,1.0,63,0.00,,,0.00,Wunderground v.1.15,2013-08-25 22:20:00,
2013-08-25 18:30:00,78.6,66.7,30.21,WSW,258,1.0,1.0,67,0.00,,,0.00,Wunderground v.1.15,2013-08-25 22:30:00,
2013-08-25 18:40:00,76.6,66.1,30.21,WNW,283,1.0,2.0,70,0.00,,,0.00,Wunderground v.1.15,2013-08-25 22:40:00,
2013-08-25 18:50:00,74.9,65.7,30.20,WSW,249,1.0,1.0,73,0.00,,,0.00,Wunderground v.1.15,2013-08-25 22:50:00,
2013-08-25 19:00:00,73.5,65.1,30.20,West,277,1.0,1.0,75,0.00,,,0.00,Wunderground v.1.15,2013-08-25 23:00:00,
2013-08-25 19:05:00,72.9,65.3,30.21,West,277,1.0,1.0,77,0.00,,,0.00,Wunderground v.1.15,2013-08-25 23:05:00,
2013-08-25 19:15:00,72.0,65.5,30.20,WNW,293,0.0,1.0,80,0.00,,,0.00,Wunderground v.1.15,2013-08-25 23:15:00,
2013-08-25 19:25:00,71.2,64.7,30.20,West,263,0.0,1.0,80,0.00,,,0.00,Wunderground v.1.15,2013-08-25 23:25:00,
2013-08-25 19:35:00,70.4,64.3,30.19,West,264,0.0,0.0,81,0.00,,,0.00,Wunderground v.1.15,2013-08-25 23:35:00,
2013-08-25 19:45:00,69.9,63.8,30.20,West,264,0.0,0.0,81,0.00,,,0.00,Wunderground v.1.15,2013-08-25 23:45:00,
2013-08-25 19:55:00,69.7,62.9,30.20,NW,312,0.0,0.0,79,0.00,,,0.00,Wunderground v.1.15,2013-08-25 23:55:00,
2013-08-25 20:05:00,69.8,63.3,30.20,NW,311,0.0,0.0,80,0.00,,,0.00,Wunderground v.1.15,2013-08-26 00:05:00,
2013-08-25 20:15:00,69.5,61.6,30.20,NW,312,0.0,0.0,76,0.00,,,0.00,Wunderground v.1.15,2013-08-26 00:15:00,
2013-08-25 20:20:00,69.4,61.1,30.20,NW,311,0.0,0.0,75,0.00,,,0.00,Wunderground v.1.15,2013-08-26 00:20:00,
2013-08-25 20:30:00,69.3,61.0,30.20,NW,312,0.0,0.0,75,0.00,,,0.00,Wunderground v.1.15,2013-08-26 00:30:00,
2013-08-25 20:35:00,69.1,60.8,30.20,NW,311,0.0,0.0,75,0.00,,,0.00,Wunderground v.1.15,2013-08-26 00:35:00,
2013-08-25 20:45:00,68.8,60.6,30.20,NW,312,0.0,0.0,75,0.00,,,0.00,Wunderground v.1.15,2013-08-26 00:45:00,
2013-08-25 20:55:00,68.5,60.3,30.20,NW,312,0.0,0.0,75,0.00,,,0.00,Wunderground v.1.15,2013-08-26 00:55:00,
2013-08-25 21:00:00,68.3,61.2,30.20,NW,311,0.0,0.0,78,0.00,,,0.00,Wunderground v.1.15,2013-08-26 01:00:00,
2013-08-25 21:05:00,68.0,60.5,30.21,NW,312,0.0,0.0,77,0.00,,,0.00,Wunderground v.1.15,2013-08-26 01:05:00,
2013-08-25 21:15:00,67.4,60.7,30.22,NW,311,0.0,0.0,79,0.00,,,0.00,Wunderground v.1.15,2013-08-26 01:15:00,
2013-08-25 21:25:00,67.0,61.0,30.22,NW,311,0.0,2.0,81,0.00,,,0.00,Wunderground v.1.15,2013-08-26 01:25:00,
2013-08-25 21:35:00,66.7,61.0,30.22,NW,311,1.0,1.0,82,0.00,,,0.00,Wunderground v.1.15,2013-08-26 01:35:00,
2013-08-25 21:40:00,66.6,60.6,30.22,NW,311,0.0,0.0,81,0.00,,,0.00,Wunderground v.1.15,2013-08-26 01:40:00,
2013-08-25 21:50:00,66.5,61.2,30.22,NW,312,0.0,0.0,83,0.00,,,0.00,Wunderground v.1.15,2013-08-26 01:50:00,
2013-08-25 22:00:00,65.9,60.6,30.22,NW,311,0.0,0.0,83,0.00,,,0.00,Wunderground v.1.15,2013-08-26 02:00:00,
2013-08-25 22:05:00,65.7,60.7,30.22,NW,312,0.0,0.0,84,0.00,,,0.00,Wunderground v.1.15,2013-08-26 02:05:00,
2013-08-25 22:15:00,65.4,60.4,30.23,NW,312,0.0,0.0,84,0.00,,,0.00,Wunderground v.1.15,2013-08-26 02:15:00,
2013-08-25 22:20:00,65.2,60.2,30.23,NW,312,0.0,0.0,84,0.00,,,0.00,Wunderground v.1.15,2013-08-26 02:20:00,
2013-08-25 22:30:00,65.0,60.4,30.22,NW,312,0.0,0.0,85,0.00,,,0.00,Wunderground v.1.15,2013-08-26 02:30:00,
2013-08-25 22:40:00,64.8,60.5,30.23,NW,312,0.0,0.0,86,0.00,,,0.00,Wunderground v.1.15,2013-08-26 02:40:00,
2013-08-25 22:50:00,64.8,60.5,30.23,NW,312,0.0,0.0,86,0.00,,,0.00,Wunderground v.1.15,2013-08-26 02:50:00,
2013-08-25 23:00:00,64.5,60.5,30.23,NW,312,0.0,0.0,87,0.00,,,0.00,Wunderground v.1.15,2013-08-26 03:00:00,
2013-08-25 23:05:00,64.2,60.2,30.23,NW,312,0.0,0.0,87,0.00,,,0.00,Wunderground v.1.15,2013-08-26 03:05:00,
2013-08-25 23:15:00,63.9,60.0,30.23,NW,312,0.0,0.0,87,0.00,,,0.00,Wunderground v.1.15,2013-08-26 03:15:00,
2013-08-25 23:25:00,63.7,60.1,30.23,NW,312,0.0,0.0,88,0.00,,,0.00,Wunderground v.1.15,2013-08-26 03:25:00,
2013-08-25 23:35:00,63.6,60.0,30.23,NW,312,0.0,0.0,88,0.00,,,0.00,Wunderground v.1.15,2013-08-26 03:35:00,
2013-08-25 23:45:00,63.4,59.8,30.23,NW,312,0.0,0.0,88,0.00,,,0.00,Wunderground v.1.15,2013-08-26 03:45:00,
2013-08-25 23:55:00,63.2,59.9,30.22,NW,312,0.0,0.0,89,0.00,,,0.00,Wunderground v.1.15,2013-08-26 03:55:00,